Location: Unspecified
(52.4292°N, 19.3359°E)
Time: 23:05:34
(UTC+02:00)

Altair - Pass Details

Date: 19 May 2024
Orbit: 1501 x 1682 km, 47.2° (Epoch: 16 May)

Event Time Altitude Azimuth Distance (km) Brightness Sun altitude
Rises 17:33:58 0° 285° (WNW) 4,936 11.4 25.6°
Reaches altitude 10° 17:37:25 10° 278° (W) 3,949 11.5 25.0°
Maximum altitude 17:46:24 38° 216° (SW) 2,380 9.2 23.7°
Drops below altitude 10° 17:55:15 10° 153° (SSE) 3,887 9.4 22.3°
Sets 17:58:38 0° 146° (SE) 4,850 9.8 21.8°
